• Processing (Info)

  • MPEC 2010-C62 : 2010 CC19

    The following Minor Planet Electronic Circular may be linked-to from your own Web pages, but must not otherwise be redistributed electronically.

    A form allowing access to any MPEC is at the bottom of this page.


    Read MPEC 2010-C61 Read MPEC 2010-C63


    M.P.E.C. 2010-C62                                Issued 2010 Feb. 15, 12:31 UT
    
         The Minor Planet Electronic Circulars contain information on unusual
             minor planets and routine data on comets.  They are published
       on behalf of Commission 20 of the International Astronomical Union by the
              Minor Planet Center, Smithsonian Astrophysical Observatory,
                              Cambridge, MA 02138, U.S.A.
    
                 Prepared using the Tamkin Foundation Computer Network
    
                                  MPC@CFA.HARVARD.EDU
              URL http://www.cfa.harvard.edu/iau/mpc.html  ISSN 1523-6714
    
                                       2010 CC19
    
    Observations:
         K10C19C* C2010 02 13.27837 09 41 05.57 +13 50 18.0          17.7   EC062704
         K10C19C  C2010 02 13.29060 09 40 53.71 +13 54 34.5          18.0   EC062704
         K10C19C  C2010 02 13.30283 09 40 41.97 +13 58 51.3          18.7   EC062704
         K10C19C  C2010 02 13.31504 09 40 29.84 +14 03 08.5          17.9   EC062704
         K10C19C  C2010 02 13.32725 09 40 17.85 +14 07 26.3          17.7   EC062704
         K10C19C  C2010 02 14.27190 09 23 01.66 +20 16 46.5          18.5   EC062704
         K10C19C  C2010 02 14.28431 09 22 45.49 +20 22 07.8          18.4   EC062704
         K10C19C  C2010 02 14.29680 09 22 29.19 +20 27 32.4          18.3   EC062704
         K10C19C  C2010 02 14.30960 09 22 12.43 +20 33 04.8          18.1   EC062704
         K10C19C  C2010 02 14.32188 09 21 56.26 +20 38 25.4          18.6   EC062704
         K10C19C  C2010 02 15.17132 09 01 07.93 +27 17 49.9          17.5 V EC062703
         K10C19C  C2010 02 15.17871 09 00 55.15 +27 21 34.5          17.8 V EC062703
         K10C19C  C2010 02 15.18616 09 00 42.19 +27 25 21.8          17.8 V EC062703
         K10C19C  C2010 02 15.19362 09 00 29.30 +27 29 08.7          17.9 V EC062703
         K10C19C  C2010 02 15.22107 08 59 40.83 +27 43 04.6          17.1 R EC062H01
         K10C19C  C2010 02 15.22670 08 59 30.91 +27 45 56.3          17.1 R EC062H01
         K10C19C  C2010 02 15.23324 08 59 19.75 +27 49 20.4          17.5 R EC062651
         K10C19C  C2010 02 15.23359 08 59 18.72 +27 49 26.9          17.5 R EC062H01
         K10C19C  C2010 02 15.23376 08 59 18.84 +27 49 36.1          17.3 R EC062651
         K10C19C  C2010 02 15.23427 08 59 17.95 +27 49 51.7          17.0 R EC062651
         K10C19C  C2010 02 15.24080 08 59 05.94 +27 53 07.5          17.3 R EC062H01
         K10C19C  C2010 02 15.35994 08 55 30.67 +28 54 15.6          18.3 R EC062926
         K10C19C  C2010 02 15.36124 08 55 28.28 +28 54 55.8          18.2 R EC062926
         K10C19C  C2010 02 15.36255 08 55 25.88 +28 55 36.0          18.2 R EC062926
    
    Observer details:
    651 Grasslands Observatory, Tucson.  Observer J. E. McGaha.  0.62-m f/5.1
        Newtonian reflector + CCD.
    703 Catalina Sky Survey.  Observer R. A. Kowalski.  Measurers J. D. Ahern,
        E. C. Beshore, A. Boattini, G. J. Garradd, A. R. Gibbs, A. D. Grauer,
        R. E. Hill, R. A. Kowalski, S. M. Larson, R. H. McNaught.  0.68-m Schmidt
        + CCD.
    704 Lincoln Laboratory ETS, New Mexico.  Observers M. Blythe, G. Spitz,
        R. Brungard, J. Paige, P. Festler.  1.0-m f/2.15 reflector + CCD.
    926 Tenagra II Observatory.  Observers P. R. Holvorcem, M. Schwartz.  Measurer
        P. R. Holvorcem.  0.81-m f/7 Ritchey-Chretien + CCD.
    H01 Magdalena Ridge Observatory, Socorro.  Observers W. H. Ryan, E. V. Ryan.
        Measurer W. H. Ryan.  2.4-m f/8.9 reflector + CCD.
    
    Orbital elements:
    2010 CC19                                                Earth MOID = 0.0545 AU
    Epoch 2010 Jan. 4.0 TT = JDT 2455200.5                  MPC
    M 279.43126              (2000.0)            P               Q
    n   0.85127089     Peri.  138.34411     +0.33704331     +0.84105542
    a   1.1026158      Node   144.17749     -0.93396438     +0.24197666
    e   0.7520421      Incl.   46.29730     +0.11879540     -0.48381100
    P   1.16           H   22.1           G   0.15           U   9
    Residuals in seconds of arc
    100213 704  0.7-  0.0     100214 704  0.1+  0.1-    100215 651  0.0   0.6+
    100213 704  0.4-  0.1+    100214 704  0.2-  0.9+    100215 H01  0.0   0.1-
    100213 704  2.3+  0.0     100215 703  0.1+  0.2-    100215 651  0.1+  0.4+
    100213 704  0.4-  0.0     100215 703  0.1-  0.4-    100215 651  0.3+  0.4+
    100213 704  0.5-  0.1+    100215 703  0.8-  0.2+    100215 H01  0.1-  0.0
    100214 704  0.2+  0.7-    100215 703  0.2+  0.2-    100215 926  0.1-  0.1-
    100214 704  0.3-  0.6-    100215 H01  0.2+  0.1+    100215 926  0.0   0.0
    100214 704  0.2-  0.1+    100215 H01  0.3+  0.2-    100215 926  0.2+  0.3-
    
    Ephemeris:
    2010 CC19                a,e,i = 1.10, 0.75, 46                  q = 0.2734
    Date    TT    R. A. (2000) Decl.     Delta      r     Elong.  Phase     V
    2010 02 13    09 45.29   +12 16.4    0.110    1.097   178.8     1.1    17.7
    2010 02 14    09 28.52   +18 22.9    0.0977   1.084   172.8     6.6    17.7
    2010 02 15    09 05.78   +25 52.5    0.0878   1.072   162.8    15.8    17.8
    2010 02 16    08 34.03   +34 36.5    0.0807   1.059   151.0    26.9    18.0
    2010 02 17    07 48.93   +43 45.7    0.0771   1.046   137.5    39.6    18.2
    2010 02 18    06 46.38   +51 41.5    0.0775   1.033   123.6    52.8    18.6
    2010 02 19    05 28.73   +56 35.7    0.0818   1.020   110.5    65.2    19.0
    2010 02 20    04 10.36   +57 54.1    0.0895   1.007    99.1    75.9    19.5
    2010 02 21    03 06.35   +56 40.3    0.0997   0.993    89.6    84.6    20.0
    2010 02 22    02 19.92   +54 19.5    0.112    0.980    81.9    91.6    20.5
    2010 02 23    01 47.14   +51 44.5    0.125    0.966    75.6    97.2    21.0
    2010 02 24    01 23.62   +49 17.6    0.139    0.952    70.4   101.7    21.4
    2010 02 25    01 06.21   +47 05.8    0.154    0.938    66.0   105.4    21.8
    2010 02 26    00 52.92   +45 09.9    0.169    0.923    62.3   108.4    22.1
    2010 02 27    00 42.48   +43 28.4    0.185    0.909    59.0   110.9    22.5
    2010 02 28    00 34.06   +41 59.2    0.201    0.894    56.2   113.0    22.7
    
    Timothy B. Spahr             (C) Copyright 2010 MPC           M.P.E.C. 2010-C62
    

    Read MPEC 2010-C61 Read MPEC 2010-C63


    MPEC number:

    Enter an MPEC number in one of the following forms:

    • 1997-B01 (the full form)
    • J97B01 (the packed version of the full form)
    • B01 (the abbreviated form)